Weather in Chernushka

Russia / Kirov Oblast     56°58′58″N   50°47′39″E
temp.,
°C
wind,
m/s
gust,
m/s
humid.,
%
clouds,
%
prec.,
mm/h
press.,
hPa
HPBL,
m
5 march, fri
fri500:00−7wnw51290100 0.1 993662
03:00−11w3109599 0.1 997310
06:00−16w269767 0.0 100090
09:00−11wnw249042 0.0 1001246
12:00−7w24870 0.0 1002484
15:00−7w36870 0.0 1003582
18:00−11wsw239577 0.0 100483
21:00−11wsw279678 0.1 1007163
6 march, sat
sat600:00−12w239799 0.2 100780
03:00−14wnw229698 0.3 100925
06:00−18nw229567 0.0 101020
09:00−15wnw249234 0.0 1012241
12:00−11w358845 0.0 1013565
15:00−11w358872 0.0 1012607
18:00−16wsw229568 0.0 101320
21:00−16sw129666 0.0 101320
7 march, sun
sun700:00−16wsw119892 0.1 101120
03:00−18wsw119988 0.1 101120
06:00−19wsw1110088 0.1 101120
09:00−15sw139493 0.1 1010240
12:00−11sw2387100 0.0 1009528
15:00−10s3590100 0.1 1007484
18:00−15sse369679 0.0 1006132
21:00−14sse3109189 0.0 1004318
8 march, mon
mon800:00−11sse41194100 0.3 1001443
03:00−11se51293100 0.8 997586
06:00−10se51293100 0.5 995658
09:00−7sw5892100 1.1 996740
12:00−6sw5885100 0.4 997869
15:00−7ssw5992100 0.8 997745
18:00−8s3994100 0.4 998428
21:00−8s2596100 0.9 997240
9 march, tue
tue900:00−10ese1297100 0.2 99521
03:00−10nnw2396100 0.6 996114
06:00−13nw3697100 0.2 998150
09:00−11wnw249493 0.2 1002305
12:00−8wnw2491100 0.1 1005517
15:00−8w3592100 0.3 1007537
18:00−11wnw2496100 0.3 1009127
21:00−13wnw1297100 0.4 101023